Simultaneous Nadir Overpasses (SNOs) Predictions

Prediction of SNOs between GOES-14 and AQUA Satellite Orbit:

Table of predicted SNOs for the next 14.0 days since TLE Epoch: 7/20/2018
Index Date Time (GOES-14) GOES-14 Lat,Lon AQUA Lat,Lon Distance(km) Time Diff (sec)
1 07/20/2018 20:27:20 0.22,-104.52 0.64,-102.62 216.74 80
2 07/21/2018 08:45:57 -0.25,-104.37 0.45,-107.78 387.21 80
3 07/23/2018 08:33:49 -0.25,-104.39 -0.14,-104.84 51.66 80
4 07/25/2018 08:24:22 -0.25,-104.40 -0.79,-101.90 283.86 80
5 07/25/2018 20:43:07 0.27,-104.55 -0.29,-107.10 290.51 80
6 07/27/2018 20:33:40 0.28,-104.57 0.37,-104.17 45.20 80
7 07/29/2018 20:21:32 0.27,-104.58 0.97,-101.22 381.15 80
8 07/30/2018 08:40:09 -0.30,-104.44 0.14,-106.39 222.15 80
9 08/01/2018 08:30:42 -0.29,-104.45 -0.52,-103.45 113.85 80
10 08/01/2018 20:49:27 0.31,-104.60 -0.55,-108.65 461.17 80
11 08/03/2018 08:18:34 -0.29,-104.47 -1.13,-100.51 449.77 80




NCC Satellite Simultaneous Nadir Overpasses (SNOs) Prediction Service
